Eureka, NV

2:45 AM PDT on September 24, 2017 (GMT -0700)
Eureka

Weather History for KP68 - July, 2012

Change the Weather History Date:

Thursday, July 19, 2012

  Actual Average Record
Temperature  
Mean Temperature 73 °F 70 °F  
Max Temperature 90 °F 90 °F 99 °F (2005)
Min Temperature 55 °F 50 °F 36 °F (1996)
Degree Days  
Heating Degree Days 0 0  
Month to date heating degree days 0 8  
Since 1 June heating degree days 116 168  
Since 1 July heating degree days 0 8  
Cooling Degree Days 8 5  
Month to date cooling degree days 138 76  
Year to date cooling degree days 214 108  
Since 1 June cooling degree days 214 105  
Growing Degree Days 22 (Base 50)    
Moisture  
Dew Point 33 °F    
Average Humidity 25    
Maximum Humidity 37    
Minimum Humidity 12    
Precipitation  
Precipitation 0.03 in 0.02 in 0.46 in (1990)
Month to date precipitation 0.24 0.33  
Year to date precipitation 3.17 5.41  
Sea Level Pressure  
Sea Level Pressure 29.95 in    
Wind  
Wind Speed 10 mph (South)    
Max Wind Speed 37 mph    
Max Gust Speed 55 mph    
T = Trace of Precipitation, MM = Missing Value Source: NWS Daily Summary

Daily Weather History Graph

Daily Weather History Graph

Search for Another Location

Airport or City:

Trip Planner

Search our weather history database for the weather conditions in past years. The results will help you decide how hot, cold, wet, or windy it might be!

Date:

Astronomy

Jul. 19, 2012 Rise Set
Actual Time 5:32 AM PDT 8:07 PM PDT
Civil Twilight 5:01 AM PDT 8:38 PM PDT
Nautical Twilight 4:22 AM PDT 9:17 PM PDT
Astronomical Twilight 3:39 AM PDT 10:00 PM PDT
Moon 6:11 AM PDT (7/19) 8:16 PM PDT (7/19)
Length of Visible Light 15h 36m
Length of Day
14h 34m
New Moon, 0% of the Moon is Illuminated
Jul 19
New Moon
Jul 26
First Quarter
Aug 1
Full
Aug 9
Last Quarter
Aug 17
New

Hourly Weather History & Observations

Time (PDT) Temp. Dew Point Humidity Pressure Visibility Wind Dir Wind Speed Gust Speed Precip Events Conditions
12:53 AM 66.0 °F 24.1 °F 20% 29.92 in - Variable 3.5 mph - N/A   Unknown
1:53 AM 66.9 °F 21.9 °F 18% 29.91 in - Calm Calm - N/A   Unknown
2:53 AM 62.1 °F 21.9 °F 21% 29.91 in - ESE 8.1 mph - N/A   Unknown
3:53 AM 57.9 °F 25.0 °F 28% 29.93 in - SSW 3.5 mph - N/A   Unknown
4:53 AM 57.9 °F 19.9 °F 23% 29.94 in - SSE 4.6 mph - N/A   Unknown
5:53 AM 55.9 °F 21.9 °F 27% 29.96 in - SSW 5.8 mph - N/A   Unknown
6:53 AM 60.1 °F 21.0 °F 22% 29.97 in - SSW 4.6 mph - N/A   Unknown
7:53 AM 73.0 °F 17.1 °F 12% 29.96 in - Calm Calm - N/A   Unknown
8:53 AM 75.9 °F 21.0 °F 13% 29.96 in - South 3.5 mph - N/A   Unknown
9:53 AM 80.1 °F 34.0 °F 19% 29.95 in - SSW 11.5 mph - N/A   Unknown
10:53 AM 82.9 °F 34.0 °F 17% 29.94 in - South 15.0 mph 27.6 mph N/A   Unknown
11:53 AM 84.9 °F 36.0 °F 17% 29.93 in - South 15.0 mph 27.6 mph N/A   Unknown
12:53 PM 88.0 °F 37.0 °F 16% 29.91 in - South 19.6 mph 32.2 mph N/A   Unknown
1:53 PM 89.1 °F 36.0 °F 15% 29.89 in - South 19.6 mph 26.5 mph N/A   Unknown
2:53 PM 87.1 °F 34.0 °F 15% 29.89 in - South 10.4 mph 28.8 mph N/A   Unknown
3:53 PM 84.9 °F 35.1 °F 17% 29.89 in - SSW 17.3 mph 25.3 mph N/A   Unknown
4:29 PM 86.0 °F 36.0 °F 17% 30.14 in - SSE 21.9 mph 26.5 mph N/A   Unknown
4:53 PM 79.0 °F 39.9 °F 25% 29.92 in - WSW 19.6 mph 44.9 mph N/A   Unknown
4:57 PM 79.0 °F 39.0 °F 24% 30.16 in - WSW 19.6 mph 29.9 mph N/A   Unknown
5:48 PM 79.0 °F 36.0 °F 21% 30.17 in - WSW 34.5 mph 55.2 mph N/A   Squalls
5:53 PM 80.1 °F 36.0 °F 20% 29.93 in - SW 18.4 mph 55.2 mph N/A   Squalls
6:53 PM 79.0 °F 48.0 °F 34% 29.91 in - SE 9.2 mph - 0.03 in   Unknown
7:53 PM 77.0 °F 39.9 °F 26% 29.89 in - South 16.1 mph 32.2 mph N/A   Unknown
8:53 PM 75.0 °F 43.0 °F 32% 29.91 in - Variable 3.5 mph - N/A   Unknown
9:53 PM 72.0 °F 41.0 °F 33% 29.93 in - Calm Calm - N/A   Unknown
10:53 PM 70.0 °F 42.1 °F 36% 29.93 in - South 9.2 mph - N/A   Unknown
11:53 PM 69.1 °F 42.1 °F 38% 29.94 in - South 13.8 mph - N/A   Unknown